TimeEST,TemperatureF,Dew PointF,Humidity,Sea Level PressureIn,VisibilityMPH,Wind Direction,Wind SpeedMPH,Gust SpeedMPH,PrecipitationIn,Events,Conditions,WindDirDegrees,DateUTC
12:04 AM,37.4,37.4,100,30.03,2.0,SE,3.5,-,0.01,Rain,Light Rain,130,2009-12-31 05:04:00
12:20 AM,37.4,37.4,100,30.03,3.0,Calm,Calm,-,0.02,Rain,Light Rain,0,2009-12-31 05:20:00
12:42 AM,37.4,37.4,100,30.02,2.5,East,3.5,-,0.05,Rain,Light Rain,100,2009-12-31 05:42:00
12:45 AM,37.4,37.4,100,30.02,3.0,East,3.5,-,0.05,Rain,Light Rain,100,2009-12-31 05:45:00
12:53 AM,37.0,37.0,100,30.02,3.0,ESE,4.6,-,0.05,Rain,Light Rain,110,2009-12-31 05:53:00
1:03 AM,37.4,37.4,100,30.01,2.5,ESE,3.5,-,0.01,Rain,Light Rain,120,2009-12-31 06:03:00
1:18 AM,37.4,37.4,100,30.01,4.0,SE,3.5,-,0.02,Rain,Light Rain,130,2009-12-31 06:18:00
1:35 AM,37.4,37.4,100,30.00,1.8,SE,4.6,-,0.02,Rain,Light Rain,140,2009-12-31 06:35:00
1:44 AM,37.4,37.4,100,30.01,2.0,SSE,4.6,-,0.03,Rain,Light Rain,150,2009-12-31 06:44:00
1:53 AM,37.0,37.0,100,30.01,1.8,SSE,4.6,-,0.03,,Overcast,150,2009-12-31 06:53:00
2:02 AM,37.4,37.4,100,30.01,1.8,SSE,3.5,-,0.00,Rain,Light Rain,150,2009-12-31 07:02:00
2:16 AM,37.4,37.4,100,30.01,2.0,SE,3.5,-,0.01,,Overcast,140,2009-12-31 07:16:00
2:28 AM,37.4,37.4,100,30.00,1.8,SSE,3.5,-,0.01,,Overcast,150,2009-12-31 07:28:00
2:48 AM,37.4,37.4,100,29.99,2.0,South,3.5,-,0.01,,Overcast,170,2009-12-31 07:48:00
2:53 AM,37.9,37.9,100,30.00,2.5,SSE,5.8,-,0.01,,Overcast,160,2009-12-31 07:53:00
3:18 AM,37.4,37.4,100,29.99,2.5,South,6.9,-,N/A,,Overcast,170,2009-12-31 08:18:00
3:38 AM,37.4,37.4,100,29.99,3.0,South,4.6,-,0.00,Rain,Light Rain,180,2009-12-31 08:38:00
3:53 AM,39.0,39.0,100,30.00,3.0,South,5.8,-,0.00,Rain,Light Rain,170,2009-12-31 08:53:00
4:02 AM,39.2,39.2,100,29.99,2.5,South,5.8,-,N/A,,Overcast,170,2009-12-31 09:02:00
4:53 AM,39.0,39.0,100,29.99,2.5,South,6.9,-,N/A,,Overcast,170,2009-12-31 09:53:00
5:02 AM,39.2,39.2,100,29.98,3.0,South,4.6,-,N/A,,Overcast,170,2009-12-31 10:02:00
5:53 AM,39.0,39.0,100,29.99,3.0,South,4.6,-,N/A,,Overcast,180,2009-12-31 10:53:00
6:01 AM,39.2,39.2,100,29.98,4.0,South,3.5,-,N/A,,Overcast,180,2009-12-31 11:01:00
6:38 AM,39.2,39.2,100,29.98,4.0,South,3.5,-,N/A,,Overcast,180,2009-12-31 11:38:00
6:45 AM,39.2,39.2,100,29.99,4.0,South,3.5,-,N/A,,Overcast,180,2009-12-31 11:45:00
6:53 AM,39.9,39.9,100,30.00,4.0,South,3.5,-,N/A,,Overcast,190,2009-12-31 11:53:00
7:30 AM,39.2,39.2,100,29.99,2.5,Calm,Calm,-,N/A,,Overcast,0,2009-12-31 12:30:00
7:53 AM,39.9,39.9,100,30.01,2.5,South,4.6,-,N/A,,Overcast,190,2009-12-31 12:53:00
8:39 AM,41.0,41.0,100,30.01,1.2,SSW,3.5,-,0.01,,Overcast,200,2009-12-31 13:39:00
8:53 AM,41.0,41.0,100,30.02,1.0,Calm,Calm,-,0.01,,Overcast,0,2009-12-31 13:53:00
9:40 AM,41.0,41.0,100,30.03,2.0,SW,4.6,-,N/A,,Overcast,230,2009-12-31 14:40:00
9:53 AM,42.1,42.1,100,30.04,2.5,SW,3.5,-,N/A,,Overcast,220,2009-12-31 14:53:00
10:20 AM,42.8,42.8,100,30.03,3.0,WSW,3.5,-,N/A,,Overcast,240,2009-12-31 15:20:00
10:36 AM,42.8,41.0,93,30.03,4.0,SW,3.5,-,N/A,,Overcast,220,2009-12-31 15:36:00
10:46 AM,42.8,42.8,100,30.03,6.0,SW,3.5,-,N/A,,Overcast,230,2009-12-31 15:46:00
10:53 AM,42.1,42.1,100,30.04,7.0,WSW,3.5,-,N/A,,Overcast,240,2009-12-31 15:53:00
11:19 AM,42.8,42.8,100,30.03,8.0,WSW,4.6,-,N/A,,Overcast,250,2009-12-31 16:19:00
11:27 AM,42.8,41.0,93,30.03,9.0,West,5.8,-,N/A,,Overcast,260,2009-12-31 16:27:00
11:35 AM,42.8,41.0,93,30.03,9.0,West,8.1,-,N/A,,Overcast,280,2009-12-31 16:35:00
11:53 AM,42.1,39.9,92,30.04,10.0,West,9.2,-,N/A,,Overcast,270,2009-12-31 16:53:00
12:00 PM,42.8,39.2,87,30.03,10.0,West,9.2,-,N/A,,Overcast,260,2009-12-31 17:00:00
12:45 PM,42.8,39.2,87,30.01,10.0,West,8.1,-,N/A,,Overcast,260,2009-12-31 17:45:00
12:53 PM,42.1,39.9,92,30.02,10.0,West,6.9,-,N/A,,Overcast,260,2009-12-31 17:53:00
1:53 PM,43.0,39.0,86,30.01,10.0,West,9.2,-,N/A,,Overcast,270,2009-12-31 18:53:00
2:53 PM,43.0,39.0,86,30.02,10.0,West,9.2,-,N/A,,Overcast,270,2009-12-31 19:53:00
3:53 PM,42.1,37.9,85,30.05,10.0,West,10.4,-,N/A,,Overcast,280,2009-12-31 20:53:00
4:53 PM,41.0,37.0,86,30.07,10.0,NW,10.4,-,N/A,,Overcast,310,2009-12-31 21:53:00
5:36 PM,39.2,35.6,87,30.08,9.0,WNW,11.5,-,N/A,,Overcast,300,2009-12-31 22:36:00
5:53 PM,39.9,36.0,86,30.09,10.0,NW,9.2,-,N/A,,Overcast,310,2009-12-31 22:53:00
6:53 PM,37.9,34.0,86,30.12,10.0,WNW,10.4,-,N/A,,Overcast,290,2009-12-31 23:53:00
7:53 PM,37.9,34.0,86,30.13,10.0,WNW,10.4,-,N/A,,Overcast,300,2010-01-01 00:53:00
8:46 PM,37.4,33.8,87,30.13,9.0,WNW,10.4,-,N/A,,Overcast,300,2010-01-01 01:46:00
8:53 PM,37.0,34.0,89,30.14,9.0,WNW,6.9,-,N/A,,Overcast,300,2010-01-01 01:53:00
9:09 PM,37.4,33.8,87,30.13,9.0,NW,8.1,-,N/A,,Overcast,310,2010-01-01 02:09:00
9:53 PM,37.0,30.9,79,30.14,10.0,West,9.2,-,N/A,,Overcast,280,2010-01-01 02:53:00
10:23 PM,35.6,30.2,81,30.14,10.0,WSW,5.8,-,N/A,,Mostly Cloudy,250,2010-01-01 03:23:00
10:43 PM,35.6,30.2,81,30.15,10.0,West,11.5,-,N/A,,Overcast,270,2010-01-01 03:43:00
10:53 PM,35.1,30.0,82,30.16,10.0,West,10.4,-,N/A,,Overcast,270,2010-01-01 03:53:00
11:02 PM,35.6,28.4,75,30.15,10.0,West,10.4,-,N/A,,Overcast,260,2010-01-01 04:02:00
11:53 PM,32.0,27.0,82,30.18,9.0,WNW,12.7,-,N/A,,Overcast,300,2010-01-01 04:53:00